sat.trackr.live / text

‹ back to catalog

ONEWEB-0096

NORAD 45439 · 2020-020R

PAYLOAD ACTIVE UNKNOWN

§ Identity

Operator
Country
UK
Launch date
2020-03-21
Launch site
TYMSC
Launch vehicle
Mass (kg)
RCS (m²)

Purposes: comms

External: N2YO · Heavens-Above · Gunter

§ Orbital elements

Epoch: 2026-09-08T19:56:23.934048Z

Period
109.80 min
Inclination
87.8967°
Eccentricity
0.0001688
Mean motion
13.11417492 rev/d
Perigee alt
1,216.4 km
Apogee alt
1,219.0 km
Semi-major
7,595.8 km
B*
7.0522e-4
RAAN
4.4333°
Arg perigee
101.3971°
Mean anomaly
258.7347°
Rev number
31,362

§ Raw data

ONEWEB-00961 45439U 20020R   26251.83083257  .00000263  00000+0  70522-3 0  99902 45439  87.8967   4.4333 0001688 101.3971 258.7347 13.11417492313628

JSON: /api/v1/satellites/45439 · /tle

For live sub-satellite position, see the globe view (requires WebGL).

§ Visibility from observer

Set your observer location to see the next 7 days of passes ≥ 10°. The values pass through the URL so the page stays shareable.

No JS? Fill the form by hand. The geolocation button needs JavaScript.